When you browse on this site, cookies collect data to enhance your experience and personalize the content and advertising you see.
Visit our Privacy Policy to learn more. By continuing to use the site, you agree to this use of cookies and data.
  • En España
  • Lista de países
  • Para 7 días
  • Temperatura del agua
  • El tiempo en el mapa
  • Informadores
  • user-avatar
    Iniciar sesión

    Tiempo cada hora Skalat

    Hoy, 3 Abril, Viernes

    Tiempo Temperatura Precipitaciones Viento Presión Humedad
    00:00 +3°C° 0 mm 2 mps 729 mmHg 61%
    01:00 +3°C° 0 mm 1 mps 729 mmHg 61%
    02:00 +3°C° 0 mm 1 mps 728 mmHg 61%
    03:00 +3°C° 0 mm 1 mps 728 mmHg 62%
    04:00 +1°C° 0 mm 2 mps 728 mmHg 63%
    05:00 +1°C° 0 mm 2 mps 728 mmHg 63%
    06:00 +2°C° 0 mm 2 mps 728 mmHg 60%
    07:00 +3°C° 0 mm 2 mps 728 mmHg 56%
    08:00 +3°C° 0 mm 3 mps 728 mmHg 52%
    09:00 +5°C° 0 mm 3 mps 728 mmHg 48%
    10:00 +6°C° 0 mm 4 mps 728 mmHg 45%
    11:00 +8°C° 0 mm 5 mps 728 mmHg 41%
    12:00 +9°C° 0 mm 5 mps 728 mmHg 40%
    13:00 +10°C° 0 mm 5 mps 728 mmHg 40%
    14:00 +10°C° 0 mm 5 mps 729 mmHg 40%
    15:00 +10°C° 0 mm 5 mps 729 mmHg 42%
    16:00 +10°C° 0 mm 5 mps 729 mmHg 43%
    17:00 +10°C° 0 mm 5 mps 729 mmHg 45%
    18:00 +10°C° 0 mm 4 mps 729 mmHg 52%
    19:00 +7°C° 0 mm 4 mps 730 mmHg 59%
    20:00 +7°C° 0 mm 3 mps 730 mmHg 66%
    21:00 +7°C° 0 mm 3 mps 731 mmHg 70%
    22:00 +5°C° 0 mm 3 mps 732 mmHg 74%
    23:00 +5°C° 0 mm 3 mps 732 mmHg 79%

    Mañana, 4 Abril, Sábado

    Tiempo Temperatura Precipitaciones Viento Presión Humedad
    00:00 +4°C° 0 mm 3 mps 733 mmHg 81%
    01:00 +4°C° 0 mm 2 mps 733 mmHg 83%
    02:00 +4°C° 0 mm 2 mps 734 mmHg 86%
    03:00 +3°C° 0 mm 2 mps 734 mmHg 85%
    04:00 +3°C° 0 mm 2 mps 734 mmHg 84%
    05:00 +2°C° 0 mm 2 mps 735 mmHg 83%
    06:00 +3°C° 0 mm 2 mps 735 mmHg 77%
    07:00 +4°C° 0 mm 2 mps 736 mmHg 71%
    08:00 +5°C° 0 mm 2 mps 736 mmHg 65%
    09:00 +6°C° 0 mm 2 mps 737 mmHg 58%
    10:00 +8°C° 0 mm 1 mps 737 mmHg 51%
    11:00 +9°C° 0 mm 1 mps 737 mmHg 43%
    12:00 +9°C° 0 mm 2 mps 738 mmHg 42%
    13:00 +9°C° 0 mm 2 mps 738 mmHg 41%
    14:00 +9°C° 0 mm 2 mps 738 mmHg 40%
    15:00 +9°C° 0 mm 2 mps 738 mmHg 42%
    16:00 +9°C° 0 mm 3 mps 738 mmHg 44%
    17:00 +9°C° 0 mm 3 mps 738 mmHg 45%
    18:00 +8°C° 0 mm 3 mps 739 mmHg 52%
    19:00 +7°C° 0 mm 2 mps 739 mmHg 59%
    20:00 +5°C° 0 mm 2 mps 740 mmHg 66%
    21:00 +5°C° 0 mm 2 mps 740 mmHg 67%
    22:00 +5°C° 0 mm 2 mps 741 mmHg 67%
    23:00 +5°C° 0 mm 1 mps 741 mmHg 67%

    Pasado mañana, 5 Abril, Domingo

    Tiempo Temperatura Precipitaciones Viento Presión Humedad
    00:00 +4°C° 0 mm 2 mps 742 mmHg 68%
    01:00 +3°C° 0 mm 2 mps 742 mmHg 69%
    02:00 +3°C° 0 mm 2 mps 742 mmHg 71%
    03:00 +2°C° 0 mm 2 mps 743 mmHg 70%
    04:00 +2°C° 0 mm 2 mps 743 mmHg 70%
    05:00 +2°C° 0 mm 2 mps 744 mmHg 70%
    06:00 +1°C° 0 mm 3 mps 744 mmHg 66%
    07:00 +2°C° 0 mm 3 mps 745 mmHg 61%
    08:00 +3°C° 0 mm 3 mps 745 mmHg 56%
    09:00 +4°C° 0 mm 3 mps 745 mmHg 51%
    10:00 +7°C° 0 mm 3 mps 746 mmHg 47%
    11:00 +7°C° 0 mm 4 mps 746 mmHg 42%
    12:00 +8°C° 0 mm 3 mps 746 mmHg 38%
    13:00 +9°C° 0 mm 3 mps 746 mmHg 35%
    14:00 +9°C° 0 mm 3 mps 746 mmHg 32%
    15:00 +9°C° 0 mm 3 mps 746 mmHg 32%
    16:00 +8°C° 0 mm 4 mps 746 mmHg 32%
    17:00 +8°C° 0 mm 4 mps 746 mmHg 33%
    18:00 +7°C° 0 mm 3 mps 746 mmHg 38%
    19:00 +5°C° 0 mm 3 mps 746 mmHg 42%
    20:00 +4°C° 0 mm 3 mps 747 mmHg 47%
    21:00 +3°C° 0 mm 3 mps 747 mmHg 50%
    22:00 +3°C° 0 mm 3 mps 747 mmHg 52%
    23:00 +2°C° 0 mm 3 mps 748 mmHg 54%

    6 Abril, Lunes

    Tiempo Temperatura Precipitaciones Viento Presión Humedad
    00:00 +1°C° 0 mm 3 mps 748 mmHg 56%
    01:00 +1°C° 0 mm 3 mps 748 mmHg 58%
    02:00 +1°C° 0 mm 3 mps 748 mmHg 60%
    03:00 0°C° 0 mm 3 mps 748 mmHg 60%
    04:00 0°C° 0 mm 3 mps 748 mmHg 60%
    05:00 -1°C° 0 mm 3 mps 748 mmHg 60%
    06:00 0°C° 0 mm 4 mps 748 mmHg 55%
    07:00 +1°C° 0 mm 5 mps 749 mmHg 51%
    08:00 +2°C° 0 mm 6 mps 749 mmHg 47%
    09:00 +3°C° 0 mm 6 mps 749 mmHg 43%
    10:00 +4°C° 0 mm 6 mps 749 mmHg 40%
    11:00 +7°C° 0 mm 6 mps 749 mmHg 37%
    12:00 +8°C° 0 mm 6 mps 749 mmHg 36%
    13:00 +8°C° 0 mm 6 mps 749 mmHg 35%
    14:00 +9°C° 0 mm 5 mps 749 mmHg 33%
    15:00 +9°C° 0 mm 5 mps 748 mmHg 34%
    16:00 +9°C° 0 mm 5 mps 748 mmHg 34%
    17:00 +9°C° 0 mm 5 mps 748 mmHg 34%
    18:00 +8°C° 0 mm 5 mps 748 mmHg 38%
    19:00 +6°C° 0 mm 4 mps 748 mmHg 42%
    20:00 +5°C° 0 mm 3 mps 747 mmHg 46%
    21:00 +4°C° 0 mm 4 mps 747 mmHg 46%
    22:00 +4°C° 0 mm 4 mps 747 mmHg 47%
    23:00 +3°C° 0 mm 4 mps 747 mmHg 47%

    7 Abril, Martes

    Tiempo Temperatura Precipitaciones Viento Presión Humedad
    00:00 +3°C° 0 mm 4 mps 747 mmHg 47%
    01:00 +3°C° 0 mm 4 mps 747 mmHg 48%
    02:00 +2°C° 0 mm 3 mps 747 mmHg 48%
    03:00 +2°C° 0 mm 3 mps 747 mmHg 49%
    04:00 +2°C° 0 mm 3 mps 747 mmHg 50%
    05:00 +1°C° 0 mm 3 mps 747 mmHg 52%
    06:00 +3°C° 0 mm 4 mps 747 mmHg 49%
    07:00 +4°C° 0 mm 4 mps 747 mmHg 46%
    08:00 +5°C° 0 mm 5 mps 747 mmHg 43%
    09:00 +7°C° 0 mm 5 mps 747 mmHg 40%
    10:00 +8°C° 0 mm 5 mps 747 mmHg 38%
    11:00 +10°C° 0 mm 5 mps 747 mmHg 35%
    12:00 +12°C° 0 mm 5 mps 747 mmHg 34%
    13:00 +13°C° 0 mm 4 mps 747 mmHg 33%
    14:00 +14°C° 0 mm 4 mps 746 mmHg 31%
    15:00 +14°C° 0 mm 4 mps 746 mmHg 32%
    16:00 +13°C° 0 mm 3 mps 746 mmHg 33%
    17:00 +13°C° 0 mm 3 mps 745 mmHg 33%
    18:00 +12°C° 0 mm 3 mps 745 mmHg 38%
    19:00 +10°C° 0 mm 2 mps 745 mmHg 42%
    20:00 +9°C° 0 mm 2 mps 745 mmHg 47%
    21:00 +8°C° 0 mm 2 mps 745 mmHg 49%
    22:00 +7°C° 0 mm 2 mps 745 mmHg 50%
    23:00 +7°C° 0 mm 2 mps 745 mmHg 52%

    8 Abril, Miércoles

    Tiempo Temperatura Precipitaciones Viento Presión Humedad
    00:00 +7°C° 0 mm 1 mps 745 mmHg 52%
    01:00 +7°C° 0 mm 1 mps 745 mmHg 53%
    02:00 +6°C° 0 mm 1 mps 745 mmHg 54%
    03:00 +6°C° 0 mm 1 mps 745 mmHg 54%
    04:00 +6°C° 0 mm 1 mps 745 mmHg 54%
    05:00 +5°C° 0 mm 1 mps 745 mmHg 55%
    06:00 +7°C° 0 mm 1 mps 745 mmHg 52%
    07:00 +8°C° 0 mm 1 mps 745 mmHg 49%
    08:00 +10°C° 0 mm 1 mps 745 mmHg 46%
    09:00 +11°C° 0 mm 1 mps 745 mmHg 41%
    10:00 +13°C° 0 mm 2 mps 745 mmHg 37%
    11:00 +15°C° 0 mm 2 mps 745 mmHg 32%
    12:00 +16°C° 0 mm 2 mps 745 mmHg 30%
    13:00 +17°C° 0 mm 2 mps 745 mmHg 28%
    14:00 +18°C° 0 mm 3 mps 745 mmHg 26%
    15:00 +17°C° 0 mm 3 mps 744 mmHg 27%
    16:00 +17°C° 0 mm 3 mps 744 mmHg 29%
    17:00 +17°C° 0 mm 3 mps 743 mmHg 30%
    18:00 +16°C° 0 mm 3 mps 743 mmHg 36%
    19:00 +14°C° 0 mm 2 mps 743 mmHg 41%
    20:00 +12°C° 0 mm 2 mps 743 mmHg 47%
    21:00 +12°C° 0 mm 2 mps 743 mmHg 49%
    22:00 +10°C° 0 mm 2 mps 744 mmHg 51%
    23:00 +9°C° 0 mm 2 mps 744 mmHg 53%
    Mostrar más